RYR612 EGSS-LERS

Flight info

Callsign RYR612
Flight time N/A
Altitude 31000
Route NUGBO M183 SILVA Q41 COWLY UT71 VAPID UN859 SOPIL DCT BALAN DCT EVPOK DCT NARAK DCT GAI DCT LOMRA DCT ROCAN DCT PUMAL/N0370F230 N31 BERGA
Aircraft B738/M-SDE2E3FGHIRWXY/LB1

Departure

Time N/A
Airport London Stansted Airport (EGSS)

Arrival

Time 2026-04-27 19:31
Airport Reus Airport (LERS)
Time Latitude Longitude Altitude Speed Heading
2026-04-27 18:12 48.66008 0.58124 31172 ft 413 kts 169°
2026-04-27 18:12 48.63219 0.59210 31157 ft 414 kts 170°
2026-04-27 18:13 48.57643 0.61383 31165 ft 415 kts 170°
2026-04-27 18:13 48.52042 0.63560 31162 ft 416 kts 170°
2026-04-27 18:14 48.46440 0.65817 31158 ft 417 kts 169°
2026-04-27 18:14 48.40838 0.68109 31156 ft 417 kts 170°
2026-04-27 18:15 48.35241 0.70384 31158 ft 417 kts 170°
2026-04-27 18:15 48.29648 0.72646 31154 ft 416 kts 170°
2026-04-27 18:16 48.24074 0.74890 31154 ft 414 kts 170°
2026-04-27 18:16 48.18511 0.77087 31151 ft 412 kts 171°
2026-04-27 18:17 48.13011 0.79245 31142 ft 411 kts 171°
2026-04-27 18:17 48.07489 0.81410 31149 ft 410 kts 171°
2026-04-27 18:18 48.01981 0.83568 31148 ft 409 kts 171°
2026-04-27 18:18 47.96481 0.85719 31135 ft 408 kts 172°
2026-04-27 18:19 47.90995 0.87860 31144 ft 407 kts 172°
2026-04-27 18:19 47.85515 0.89993 31131 ft 407 kts 172°
2026-04-27 18:20 47.80044 0.92116 31143 ft 406 kts 172°
2026-04-27 18:20 47.74570 0.94233 31128 ft 406 kts 172°
2026-04-27 18:21 47.69096 0.96345 31129 ft 406 kts 172°
2026-04-27 18:21 47.63625 0.98453 31132 ft 407 kts 172°
2026-04-27 18:22 47.58142 1.00561 31110 ft 407 kts 172°
2026-04-27 18:22 47.52650 1.02669 31120 ft 408 kts 172°
2026-04-27 18:23 47.47144 1.04777 31122 ft 409 kts 172°
2026-04-27 18:23 47.41611 1.06438 31114 ft 400 kts 184°
2026-04-27 18:24 47.36095 1.06334 31105 ft 397 kts 188°
2026-04-27 18:24 47.30569 1.06146 31118 ft 397 kts 188°
2026-04-27 18:25 47.25035 1.05999 31119 ft 398 kts 187°
2026-04-27 18:25 47.19491 1.05874 31117 ft 399 kts 187°
2026-04-27 18:26 47.13977 1.05752 31106 ft 399 kts 188°
2026-04-27 18:26 47.08430 1.05630 31115 ft 399 kts 188°
2026-04-27 18:27 47.02878 1.05506 31110 ft 399 kts 188°
2026-04-27 18:27 46.97340 1.05303 31114 ft 398 kts 188°
2026-04-27 18:28 46.91810 1.05046 31105 ft 397 kts 188°
2026-04-27 18:28 46.86281 1.04795 31111 ft 397 kts 188°
2026-04-27 18:29 46.80754 1.04553 31112 ft 397 kts 188°
2026-04-27 18:29 46.75226 1.04314 31107 ft 397 kts 188°
2026-04-27 18:30 46.69695 1.04076 31108 ft 398 kts 188°
2026-04-27 18:30 46.64160 1.03838 31105 ft 398 kts 188°
2026-04-27 18:31 46.58628 1.03601 31109 ft 398 kts 188°
2026-04-27 18:31 46.53094 1.03375 31093 ft 399 kts 186°
2026-04-27 18:32 46.47521 1.04522 31114 ft 410 kts 174°
2026-04-27 18:32 46.41960 1.06446 31104 ft 411 kts 173°
2026-04-27 18:33 46.36384 1.08365 31104 ft 412 kts 174°
2026-04-27 18:33 46.30798 1.10247 31099 ft 412 kts 173°
2026-04-27 18:34 46.25199 1.12114 31105 ft 413 kts 173°
2026-04-27 18:34 46.19593 1.13974 31103 ft 414 kts 173°
2026-04-27 18:35 46.14011 1.15822 31088 ft 415 kts 173°
2026-04-27 18:35 46.08382 1.17683 31103 ft 415 kts 173°
2026-04-27 18:36 46.02745 1.19543 31095 ft 416 kts 173°
2026-04-27 18:36 45.97102 1.21400 31105 ft 416 kts 173°
2026-04-27 18:37 45.91445 1.23259 31103 ft 417 kts 172°
2026-04-27 18:37 45.85786 1.25114 31106 ft 417 kts 172°
2026-04-27 18:38 45.80123 1.26967 31104 ft 418 kts 172°
2026-04-27 18:38 45.74451 1.28818 31098 ft 418 kts 172°
2026-04-27 18:39 45.68783 1.30666 31085 ft 418 kts 172°
2026-04-27 18:39 45.63119 1.32507 31089 ft 417 kts 172°
2026-04-27 18:40 45.57457 1.34345 31085 ft 417 kts 172°
2026-04-27 18:40 45.51812 1.36173 31079 ft 416 kts 172°
2026-04-27 18:41 45.46169 1.37996 31081 ft 415 kts 172°
2026-04-27 18:41 45.40532 1.39813 31082 ft 415 kts 172°
2026-04-27 18:42 45.35852 1.41320 31071 ft 415 kts 172°
2026-04-27 18:42 45.29263 1.43437 31079 ft 415 kts 172°
2026-04-27 18:43 45.23656 1.45235 31071 ft 416 kts 172°
2026-04-27 18:43 45.17971 1.47054 31071 ft 416 kts 172°
2026-04-27 18:44 45.12350 1.48849 31072 ft 417 kts 172°
2026-04-27 18:44 45.06692 1.50653 31081 ft 417 kts 172°
2026-04-27 18:45 45.01029 1.52454 31077 ft 417 kts 172°
2026-04-27 18:45 44.95355 1.54255 31072 ft 418 kts 172°
2026-04-27 18:46 44.89678 1.56053 31086 ft 419 kts 172°
2026-04-27 18:46 44.83986 1.57852 31081 ft 419 kts 172°
2026-04-27 18:47 44.78290 1.59649 31089 ft 420 kts 172°
2026-04-27 18:47 44.72574 1.61449 31080 ft 421 kts 172°
2026-04-27 18:48 44.66858 1.63246 31080 ft 421 kts 172°
2026-04-27 18:48 44.61147 1.65038 31076 ft 420 kts 172°
2026-04-27 18:49 44.55446 1.66823 31076 ft 419 kts 171°
2026-04-27 18:49 44.49755 1.68600 31080 ft 419 kts 171°
2026-04-27 18:50 44.44076 1.70370 31089 ft 418 kts 171°
2026-04-27 18:50 44.38396 1.72137 31073 ft 418 kts 171°
2026-04-27 18:51 44.32719 1.73901 31081 ft 418 kts 171°
2026-04-27 18:51 44.27037 1.75544 31081 ft 416 kts 174°
2026-04-27 18:52 44.22283 1.76580 31080 ft 416 kts 175°
2026-04-27 18:53 44.12773 1.78590 31088 ft 416 kts 174°
2026-04-27 18:53 44.07977 1.79640 31084 ft 417 kts 174°
2026-04-27 18:54 44.02250 1.80899 31075 ft 417 kts 174°
2026-04-27 18:54 43.96565 1.82148 31079 ft 416 kts 174°
2026-04-27 18:55 43.90797 1.82982 31080 ft 413 kts 179°
2026-04-27 18:55 43.85066 1.83482 31083 ft 412 kts 179°
2026-04-27 18:56 43.79384 1.83979 31076 ft 412 kts 179°
2026-04-27 18:56 43.73669 1.84515 31082 ft 412 kts 179°
2026-04-27 18:57 43.67947 1.85067 31074 ft 412 kts 178°
2026-04-27 18:57 43.62227 1.85622 31075 ft 412 kts 178°
2026-04-27 18:58 43.56502 1.86175 31083 ft 412 kts 178°
2026-04-27 18:58 43.50771 1.86727 31075 ft 413 kts 178°
2026-04-27 18:59 43.45041 1.87279 31078 ft 413 kts 178°
2026-04-27 18:59 43.39312 1.87829 31076 ft 413 kts 178°
2026-04-27 19:00 43.33593 1.88377 31092 ft 412 kts 178°
2026-04-27 19:00 43.27875 1.88928 31090 ft 411 kts 178°
2026-04-27 19:01 43.22168 1.89477 31094 ft 411 kts 178°
2026-04-27 19:01 43.16456 1.90024 31091 ft 412 kts 178°
2026-04-27 19:02 43.10742 1.90572 31102 ft 412 kts 178°
2026-04-27 19:02 43.05022 1.91117 31101 ft 411 kts 178°
2026-04-27 19:02 43.02213 1.91377 31101 ft 398 kts 178°
2026-04-27 19:03 42.99488 1.91645 31045 ft 389 kts 178°
2026-04-27 19:03 42.96798 1.91906 30787 ft 384 kts 178°
2026-04-27 19:03 42.94155 1.92159 30474 ft 380 kts 178°
2026-04-27 19:03 42.92415 1.92325 30258 ft 378 kts 178°
2026-04-27 19:04 42.88916 1.92656 29746 ft 375 kts 178°
2026-04-27 19:04 42.86322 1.92901 29384 ft 371 kts 178°
2026-04-27 19:04 42.83754 1.93145 29032 ft 368 kts 178°
2026-04-27 19:04 42.81213 1.93385 28684 ft 365 kts 178°
2026-04-27 19:05 42.78691 1.93624 28321 ft 362 kts 178°
2026-04-27 19:05 42.76191 1.93861 27984 ft 359 kts 178°
2026-04-27 19:05 42.73704 1.94096 27635 ft 357 kts 178°
2026-04-27 19:05 42.71238 1.94329 27293 ft 354 kts 178°
2026-04-27 19:06 42.68791 1.94560 26942 ft 351 kts 178°
2026-04-27 19:06 42.66394 1.94829 26621 ft 349 kts 175°
2026-04-27 19:06 42.63964 1.95271 26286 ft 347 kts 173°
2026-04-27 19:06 42.61587 1.95766 25964 ft 344 kts 173°
2026-04-27 19:07 42.59224 1.96267 25635 ft 343 kts 173°
2026-04-27 19:07 42.56900 1.96754 25301 ft 341 kts 173°
2026-04-27 19:07 42.54559 1.97235 24978 ft 340 kts 173°
2026-04-27 19:07 42.52230 1.97707 24653 ft 338 kts 173°
2026-04-27 19:08 42.49903 1.98174 24327 ft 337 kts 173°
2026-04-27 19:08 42.47584 1.98636 23982 ft 337 kts 173°
2026-04-27 19:08 42.45269 1.99097 23626 ft 336 kts 173°
2026-04-27 19:08 42.42958 1.99557 23255 ft 335 kts 173°
2026-04-27 19:09 42.40661 2.00014 22904 ft 333 kts 173°
2026-04-27 19:09 42.38380 2.00466 22552 ft 331 kts 173°
2026-04-27 19:09 42.36106 2.00899 22227 ft 328 kts 175°
2026-04-27 19:09 42.33846 2.01206 21924 ft 325 kts 176°
2026-04-27 19:10 42.31602 2.01468 21597 ft 323 kts 177°
2026-04-27 19:10 42.29367 2.01724 21275 ft 321 kts 177°
2026-04-27 19:10 42.27147 2.01984 20962 ft 319 kts 176°
2026-04-27 19:10 42.25655 2.02163 20746 ft 318 kts 176°
2026-04-27 19:11 42.22741 2.02519 20325 ft 316 kts 176°
2026-04-27 19:11 42.20556 2.02788 20019 ft 315 kts 176°
2026-04-27 19:11 42.18378 2.02897 19684 ft 312 kts 191°
2026-04-27 19:11 42.16363 2.01949 19390 ft 306 kts 212°
2026-04-27 19:12 42.14707 2.00187 19109 ft 302 kts 223°
2026-04-27 19:12 42.13198 1.98281 18804 ft 302 kts 224°
2026-04-27 19:12 42.11684 1.96330 18491 ft 301 kts 224°
2026-04-27 19:12 42.10174 1.94385 18160 ft 300 kts 224°
2026-04-27 19:13 42.08663 1.92453 17821 ft 299 kts 224°
2026-04-27 19:13 42.07180 1.90566 17510 ft 298 kts 224°
2026-04-27 19:13 42.05678 1.88665 17189 ft 296 kts 224°
2026-04-27 19:13 42.04179 1.86772 16895 ft 295 kts 224°
2026-04-27 19:14 42.02689 1.84894 16596 ft 293 kts 224°
2026-04-27 19:14 42.01204 1.83025 16297 ft 291 kts 224°
2026-04-27 19:14 41.99729 1.81171 16003 ft 290 kts 224°
2026-04-27 19:14 41.98259 1.79324 15704 ft 288 kts 224°
2026-04-27 19:15 41.96797 1.77490 15405 ft 287 kts 224°
2026-04-27 19:15 41.95304 1.75713 15116 ft 286 kts 218°
2026-04-27 19:15 41.93698 1.74138 14834 ft 286 kts 216°
2026-04-27 19:15 41.92064 1.72621 14538 ft 285 kts 215°
2026-04-27 19:16 41.90433 1.71110 14249 ft 285 kts 216°
2026-04-27 19:16 41.89335 1.70086 14040 ft 284 kts 216°
2026-04-27 19:16 41.87190 1.68072 13628 ft 284 kts 216°
2026-04-27 19:16 41.85578 1.66548 13311 ft 283 kts 216°
2026-04-27 19:17 41.83974 1.65026 13007 ft 282 kts 216°
2026-04-27 19:17 41.82380 1.63512 12713 ft 280 kts 216°
2026-04-27 19:17 41.80793 1.62004 12418 ft 279 kts 216°
2026-04-27 19:17 41.79213 1.60502 12134 ft 278 kts 216°
2026-04-27 19:18 41.77640 1.59007 11855 ft 277 kts 216°
2026-04-27 19:18 41.76071 1.57519 11573 ft 276 kts 216°
2026-04-27 19:18 41.74511 1.56039 11294 ft 274 kts 216°
2026-04-27 19:18 41.72861 1.54778 11008 ft 274 kts 197°
2026-04-27 19:19 41.70993 1.54254 10820 ft 277 kts 191°
2026-04-27 19:19 41.69066 1.53794 10578 ft 284 kts 191°
2026-04-27 19:19 41.67101 1.53318 10340 ft 289 kts 191°
2026-04-27 19:19 41.65111 1.52826 10082 ft 293 kts 191°
2026-04-27 19:20 41.63112 1.52326 9803 ft 291 kts 192°
2026-04-27 19:20 41.61133 1.51826 9517 ft 288 kts 192°
2026-04-27 19:20 41.59179 1.51329 9260 ft 285 kts 192°
2026-04-27 19:20 41.57243 1.50837 9144 ft 282 kts 191°
2026-04-27 19:21 41.55316 1.50352 9112 ft 279 kts 190°
2026-04-27 19:21 41.53395 1.50295 8700 ft 283 kts 172°
2026-04-27 19:21 41.51458 1.50774 8353 ft 283 kts 169°
2026-04-27 19:21 41.49522 1.51265 8069 ft 282 kts 169°
2026-04-27 19:22 41.47605 1.51733 7807 ft 279 kts 170°
2026-04-27 19:22 41.45704 1.52182 7559 ft 276 kts 170°
2026-04-27 19:22 41.43812 1.52620 7245 ft 277 kts 170°
2026-04-27 19:22 41.41921 1.53050 7001 ft 274 kts 169°
2026-04-27 19:23 41.40046 1.53473 6751 ft 272 kts 169°
2026-04-27 19:23 41.38188 1.53890 6514 ft 270 kts 169°
2026-04-27 19:23 41.36347 1.54302 6267 ft 267 kts 169°
2026-04-27 19:23 41.34518 1.54621 6047 ft 261 kts 182°
2026-04-27 19:24 41.32843 1.53934 6037 ft 247 kts 205°
2026-04-27 19:24 41.31290 1.52902 5599 ft 249 kts 205°
2026-04-27 19:24 41.29769 1.51918 5291 ft 244 kts 204°
2026-04-27 19:24 41.28237 1.50939 5039 ft 238 kts 204°
2026-04-27 19:25 41.26782 1.50016 4792 ft 232 kts 204°
2026-04-27 19:25 41.25348 1.49109 4555 ft 225 kts 204°
2026-04-27 19:25 41.24036 1.48035 4305 ft 222 kts 227°
2026-04-27 19:25 41.23377 1.46245 4157 ft 212 kts 251°
2026-04-27 19:26 41.22883 1.44463 4037 ft 199 kts 246°
2026-04-27 19:26 41.22361 1.42770 3985 ft 197 kts 246°
2026-04-27 19:26 41.21856 1.41086 3772 ft 195 kts 246°
2026-04-27 19:26 41.21368 1.39432 3523 ft 190 kts 246°
2026-04-27 19:27 41.20895 1.37816 3279 ft 185 kts 246°
2026-04-27 19:27 41.20434 1.36240 3036 ft 181 kts 247°
2026-04-27 19:27 41.19983 1.34698 2802 ft 178 kts 247°
2026-04-27 19:27 41.19531 1.33155 2573 ft 180 kts 247°
2026-04-27 19:28 41.19377 1.32630 2490 ft 180 kts 247°
2026-04-27 19:28 41.18627 1.30060 2089 ft 178 kts 248°
2026-04-27 19:28 41.18182 1.28539 1854 ft 176 kts 248°
2026-04-27 19:28 41.17751 1.27059 1636 ft 165 kts 248°
2026-04-27 19:29 41.17350 1.25684 1415 ft 157 kts 249°
2026-04-27 19:29 41.16958 1.24341 1207 ft 156 kts 249°
2026-04-27 19:29 41.16567 1.22985 999 ft 158 kts 249°
2026-04-27 19:29 41.16169 1.21620 803 ft 161 kts 248°
2026-04-27 19:30 41.15762 1.20224 581 ft 161 kts 249°
2026-04-27 19:30 41.15367 1.18865 372 ft 155 kts 248°
2026-04-27 19:30 41.14987 1.17577 242 ft 142 kts 248°
2026-04-27 19:30 41.14703 1.16600 241 ft 80 kts 249°
2026-04-27 19:31 41.14569 1.16136 240 ft 37 kts 248°
2026-04-27 19:31 41.14521 1.15951 240 ft 15 kts 266°
2026-04-27 19:31 41.14583 1.15891 240 ft 11 kts 340°
2026-04-27 19:31 41.14616 1.15875 240 ft 1 kts 339°
2026-04-27 19:32 41.14620 1.15873 240 ft 1 kts 339°
2026-04-27 19:32 41.14637 1.15863 240 ft 7 kts 328°
2026-04-27 19:32 41.14648 1.15799 241 ft 8 kts 256°
2026-04-27 19:32 41.14630 1.15735 241 ft 7 kts 249°
2026-04-27 19:33 41.14615 1.15667 240 ft 8 kts 273°
2026-04-27 19:33 41.14639 1.15643 240 ft 7 kts 338°
2026-04-27 19:33 41.14680 1.15621 240 ft 1 kts 338°
2026-04-27 19:33 41.14681 1.15621 240 ft 0 kts 338°